Year,Month,Day,Hour,Minute,Value (Times are PST for temperature in C)
2009,02,14,00,00,0.50
2009,02,14,00,02,0.50
2009,02,14,00,03,0.40
2009,02,14,00,04,0.40
2009,02,14,00,06,0.40
2009,02,14,00,07,0.40
2009,02,14,00,08,0.40
2009,02,14,00,09,0.40
2009,02,14,00,10,0.40
2009,02,14,00,11,0.40
2009,02,14,00,12,0.40
2009,02,14,00,13,0.40
2009,02,14,00,14,0.40
2009,02,14,00,15,0.40
2009,02,14,00,16,0.40
2009,02,14,00,17,0.40
2009,02,14,00,18,0.40
2009,02,14,00,19,0.40
2009,02,14,00,20,0.40
2009,02,14,00,21,0.40
2009,02,14,00,22,0.40
2009,02,14,00,23,0.40
2009,02,14,00,24,0.30
2009,02,14,00,25,0.30
2009,02,14,00,26,0.30
2009,02,14,00,27,0.30
2009,02,14,00,28,0.30
2009,02,14,00,29,0.30
2009,02,14,00,30,0.30
2009,02,14,00,31,0.30
2009,02,14,00,33,0.20
2009,02,14,00,34,0.20
2009,02,14,00,35,0.20
2009,02,14,00,37,0.20
2009,02,14,00,38,0.10
2009,02,14,00,39,0.10
2009,02,14,00,40,0.10
2009,02,14,00,41,0.10
2009,02,14,00,42,0.10
2009,02,14,00,43,0.00
2009,02,14,00,44,0.00
2009,02,14,00,45,-0.10
2009,02,14,00,46,-0.10
2009,02,14,00,47,-0.10
2009,02,14,00,49,-0.10
2009,02,14,00,51,-0.20
2009,02,14,00,52,-0.20
2009,02,14,00,54,-0.20
2009,02,14,00,55,-0.20
2009,02,14,00,56,-0.30
2009,02,14,00,57,-0.30
2009,02,14,00,58,-0.30
2009,02,14,00,59,-0.30
2009,02,14,01,01,-0.30
2009,02,14,01,02,-0.30
2009,02,14,01,03,-0.30
2009,02,14,01,04,-0.40
2009,02,14,01,06,-0.40
2009,02,14,01,07,-0.40
2009,02,14,01,08,-0.50
2009,02,14,01,09,-0.50
2009,02,14,01,10,-0.50
2009,02,14,01,11,-0.60
2009,02,14,01,12,-0.60
2009,02,14,01,13,-0.60
2009,02,14,01,14,-0.60
2009,02,14,01,15,-0.60
2009,02,14,01,16,-0.60
2009,02,14,01,17,-0.60
2009,02,14,01,18,-0.70
2009,02,14,01,19,-0.70
2009,02,14,01,20,-0.70
2009,02,14,01,21,-0.70
2009,02,14,01,22,-0.70
2009,02,14,01,23,-0.70
2009,02,14,01,25,-0.70
2009,02,14,01,26,-0.70
2009,02,14,01,27,-0.70
2009,02,14,01,29,-0.70
2009,02,14,01,30,-0.70
2009,02,14,01,31,-0.70
2009,02,14,01,32,-0.70
2009,02,14,01,33,-0.70
2009,02,14,01,35,-0.70
2009,02,14,01,36,-0.70
2009,02,14,01,37,-0.70
2009,02,14,01,39,-0.80
2009,02,14,01,40,-0.80
2009,02,14,01,41,-0.80
2009,02,14,01,42,-0.80
2009,02,14,01,43,-0.80
2009,02,14,01,44,-0.80
2009,02,14,01,45,-0.80
2009,02,14,01,46,-0.80
2009,02,14,01,47,-0.80
2009,02,14,01,48,-0.80
2009,02,14,01,49,-0.80
2009,02,14,01,50,-0.90
2009,02,14,01,51,-0.80
2009,02,14,01,52,-0.90
2009,02,14,01,53,-0.90
2009,02,14,01,54,-0.90
2009,02,14,01,55,-0.90
2009,02,14,01,56,-0.90
2009,02,14,01,57,-0.90
2009,02,14,01,58,-0.90
2009,02,14,01,59,-0.90
2009,02,14,02,00,-0.90
2009,02,14,02,01,-1.00
2009,02,14,02,02,-0.90
2009,02,14,02,03,-1.00
2009,02,14,02,04,-1.00
2009,02,14,02,05,-1.00
2009,02,14,02,06,-1.00
2009,02,14,02,08,-1.00
2009,02,14,02,09,-1.00
2009,02,14,02,10,-1.00
2009,02,14,02,11,-1.00
2009,02,14,02,12,-1.00
2009,02,14,02,13,-1.10
2009,02,14,02,14,-1.00
2009,02,14,02,15,-1.00
2009,02,14,02,16,-1.10
2009,02,14,02,18,-1.10
2009,02,14,02,20,-1.10
2009,02,14,02,21,-1.10
2009,02,14,02,22,-1.10
2009,02,14,02,23,-1.10
2009,02,14,02,25,-1.10
2009,02,14,02,26,-1.10
2009,02,14,02,27,-1.10
2009,02,14,02,28,-1.10
2009,02,14,02,29,-1.10
2009,02,14,02,30,-1.10
2009,02,14,02,31,-1.10
2009,02,14,02,32,-1.10
2009,02,14,02,33,-1.10
2009,02,14,02,34,-1.10
2009,02,14,02,35,-1.10
2009,02,14,02,37,-1.10
2009,02,14,02,38,-1.10
2009,02,14,02,40,-1.10
2009,02,14,02,41,-1.10
2009,02,14,02,42,-1.10
2009,02,14,02,43,-1.10
2009,02,14,02,44,-1.10
2009,02,14,02,45,-1.10
2009,02,14,02,46,-1.10
2009,02,14,02,47,-1.10
2009,02,14,02,48,-1.10
2009,02,14,02,49,-1.10
2009,02,14,02,50,-1.10
2009,02,14,02,51,-1.10
2009,02,14,02,53,-1.10
2009,02,14,02,54,-1.10
2009,02,14,02,55,-1.20
2009,02,14,02,56,-1.20
2009,02,14,02,58,-1.20
2009,02,14,02,59,-1.20
2009,02,14,03,00,-1.20
2009,02,14,03,01,-1.20
2009,02,14,03,02,-1.20
2009,02,14,03,03,-1.20
2009,02,14,03,04,-1.20
2009,02,14,03,05,-1.20
2009,02,14,03,06,-1.20
2009,02,14,03,07,-1.20
2009,02,14,03,20,-1.30
2009,02,14,03,21,-1.30
2009,02,14,03,22,-1.30
2009,02,14,03,24,-1.30
2009,02,14,03,25,-1.30
2009,02,14,03,26,-1.30
2009,02,14,03,27,-1.40
2009,02,14,03,28,-1.40
2009,02,14,03,29,-1.40
2009,02,14,03,30,-1.40
2009,02,14,03,32,-1.40
2009,02,14,03,33,-1.40
2009,02,14,03,35,-1.40
2009,02,14,03,36,-1.40
2009,02,14,03,37,-1.40
2009,02,14,03,38,-1.40
2009,02,14,03,39,-1.40
2009,02,14,03,40,-1.40
2009,02,14,03,41,-1.50
2009,02,14,03,42,-1.50
2009,02,14,03,43,-1.50
2009,02,14,03,44,-1.50
2009,02,14,03,46,-1.60
2009,02,14,03,47,-1.60
2009,02,14,03,48,-1.60
2009,02,14,03,49,-1.60
2009,02,14,03,50,-1.60
2009,02,14,03,51,-1.60
2009,02,14,03,52,-1.60
2009,02,14,03,53,-1.60
2009,02,14,03,55,-1.60
2009,02,14,03,56,-1.60
2009,02,14,03,57,-1.60
2009,02,14,03,58,-1.60
2009,02,14,03,59,-1.60
2009,02,14,04,00,-1.70
2009,02,14,04,01,-1.70
2009,02,14,04,03,-1.70
2009,02,14,04,04,-1.70
2009,02,14,04,05,-1.70
2009,02,14,04,06,-1.70
2009,02,14,04,07,-1.70
2009,02,14,04,08,-1.70
2009,02,14,04,09,-1.70
2009,02,14,04,10,-1.70
2009,02,14,04,11,-1.70
2009,02,14,04,12,-1.70
2009,02,14,04,13,-1.70
2009,02,14,04,14,-1.70
2009,02,14,04,15,-1.70
2009,02,14,04,16,-1.70
2009,02,14,04,17,-1.70
2009,02,14,04,19,-1.70
2009,02,14,04,20,-1.70
2009,02,14,04,21,-1.70
2009,02,14,04,22,-1.70
2009,02,14,04,23,-1.70
2009,02,14,04,24,-1.70
2009,02,14,04,25,-1.70
2009,02,14,04,26,-1.70
2009,02,14,04,27,-1.70
2009,02,14,04,28,-1.70
2009,02,14,04,29,-1.70
2009,02,14,04,30,-1.70
2009,02,14,04,31,-1.70
2009,02,14,04,32,-1.70
2009,02,14,04,33,-1.70
2009,02,14,04,34,-1.70
2009,02,14,04,35,-1.70
2009,02,14,04,36,-1.70
2009,02,14,04,37,-1.70
2009,02,14,04,38,-1.70
2009,02,14,04,39,-1.70
2009,02,14,04,40,-1.70
2009,02,14,04,41,-1.70
2009,02,14,04,42,-1.70
2009,02,14,04,43,-1.70
2009,02,14,04,44,-1.70
2009,02,14,04,45,-1.70
2009,02,14,04,46,-1.80
2009,02,14,04,47,-1.80
2009,02,14,04,48,-1.80
2009,02,14,04,49,-1.80
2009,02,14,04,50,-1.80
2009,02,14,04,51,-1.80
2009,02,14,04,52,-1.80
2009,02,14,04,54,-1.80
2009,02,14,04,55,-1.80
2009,02,14,04,56,-1.80
2009,02,14,04,57,-1.80
2009,02,14,04,58,-1.80
2009,02,14,04,59,-1.80
2009,02,14,05,00,-1.80
2009,02,14,05,01,-1.80
2009,02,14,05,02,-1.80
2009,02,14,05,03,-1.80
2009,02,14,05,04,-1.80
2009,02,14,05,05,-1.80
2009,02,14,05,06,-1.80
2009,02,14,05,07,-1.80
2009,02,14,05,08,-1.80
2009,02,14,05,09,-1.80
2009,02,14,05,10,-1.80
2009,02,14,05,11,-1.80
2009,02,14,05,12,-1.80
2009,02,14,05,13,-1.80
2009,02,14,05,14,-1.80
2009,02,14,05,15,-1.80
2009,02,14,05,16,-1.80
2009,02,14,05,17,-1.80
2009,02,14,05,18,-1.80
2009,02,14,05,19,-1.80
2009,02,14,05,21,-1.80
2009,02,14,05,22,-1.80
2009,02,14,05,23,-1.80
2009,02,14,05,25,-1.90
2009,02,14,05,26,-1.90
2009,02,14,05,27,-1.90
2009,02,14,05,28,-1.90
2009,02,14,05,29,-1.90
2009,02,14,05,30,-1.90
2009,02,14,05,31,-1.90
2009,02,14,05,32,-1.90
2009,02,14,05,33,-1.90
2009,02,14,05,34,-1.90
2009,02,14,05,35,-1.90
2009,02,14,05,36,-1.90
2009,02,14,05,37,-1.90
2009,02,14,05,38,-1.90
2009,02,14,05,39,-1.90
2009,02,14,05,40,-1.90
2009,02,14,05,41,-1.90
2009,02,14,05,42,-1.90
2009,02,14,05,43,-1.90
2009,02,14,05,44,-1.90
2009,02,14,05,45,-1.90
2009,02,14,05,46,-1.90
2009,02,14,05,47,-1.90
2009,02,14,05,49,-1.90
2009,02,14,05,50,-1.90
2009,02,14,05,51,-1.90
2009,02,14,05,52,-1.90
2009,02,14,05,53,-1.90
2009,02,14,05,54,-1.90
2009,02,14,05,55,-1.90
2009,02,14,05,56,-1.90
2009,02,14,05,57,-1.90
2009,02,14,05,58,-1.90
2009,02,14,05,59,-1.90
2009,02,14,06,00,-1.90
2009,02,14,06,01,-1.90
2009,02,14,06,02,-1.90
2009,02,14,06,03,-2.00
2009,02,14,06,04,-1.90
2009,02,14,06,05,-1.90
2009,02,14,06,06,-1.90
2009,02,14,06,07,-1.90
2009,02,14,06,08,-1.90
2009,02,14,06,09,-1.90
2009,02,14,06,11,-1.90
2009,02,14,06,12,-1.90
2009,02,14,06,13,-1.90
2009,02,14,06,14,-2.00
2009,02,14,06,15,-1.90
2009,02,14,06,16,-1.90
2009,02,14,06,17,-2.00
2009,02,14,06,18,-2.00
2009,02,14,06,19,-2.00
2009,02,14,06,20,-2.00
2009,02,14,06,21,-2.00
2009,02,14,06,23,-2.00
2009,02,14,06,24,-2.00
2009,02,14,06,25,-2.00
2009,02,14,06,26,-2.00
2009,02,14,06,27,-2.00
2009,02,14,06,28,-2.10
2009,02,14,06,29,-2.10
2009,02,14,06,30,-2.10
2009,02,14,06,31,-2.10
2009,02,14,06,32,-2.10
2009,02,14,06,33,-2.10
2009,02,14,06,34,-2.10
2009,02,14,06,35,-2.10
2009,02,14,06,36,-2.10
2009,02,14,06,37,-2.10
2009,02,14,06,38,-2.10
2009,02,14,06,39,-2.10
2009,02,14,06,41,-2.10
2009,02,14,06,42,-2.10
2009,02,14,06,43,-2.10
2009,02,14,06,44,-2.10
2009,02,14,06,46,-2.10
2009,02,14,06,47,-2.10
2009,02,14,06,48,-2.10
2009,02,14,06,49,-2.10
2009,02,14,06,50,-2.10
2009,02,14,06,51,-2.10
2009,02,14,06,52,-2.10
2009,02,14,06,53,-2.10
2009,02,14,06,54,-2.10
2009,02,14,06,55,-2.10
2009,02,14,06,56,-2.10
2009,02,14,06,57,-2.10
2009,02,14,06,58,-2.10
2009,02,14,06,59,-2.10
2009,02,14,07,01,-2.10
2009,02,14,07,02,-2.10
2009,02,14,07,03,-2.20
2009,02,14,07,04,-2.20
2009,02,14,07,05,-2.20
2009,02,14,07,06,-2.20
2009,02,14,07,07,-2.20
2009,02,14,07,08,-2.20
2009,02,14,07,09,-2.20
2009,02,14,07,10,-2.20
2009,02,14,07,11,-2.20
2009,02,14,07,12,-2.20
2009,02,14,07,13,-2.20
2009,02,14,07,14,-2.20
2009,02,14,07,15,-2.20
2009,02,14,07,16,-2.20
2009,02,14,07,17,-2.20
2009,02,14,07,18,-2.20
2009,02,14,07,19,-2.20
2009,02,14,07,20,-2.20
2009,02,14,07,21,-2.20
2009,02,14,07,22,-2.20
2009,02,14,07,23,-2.20
2009,02,14,07,24,-2.20
2009,02,14,07,25,-2.20
2009,02,14,07,26,-2.20
2009,02,14,07,27,-2.30
2009,02,14,07,28,-2.20
2009,02,14,07,29,-2.30
2009,02,14,07,30,-2.20
2009,02,14,07,31,-2.30
2009,02,14,07,32,-2.30
2009,02,14,07,33,-2.30
2009,02,14,07,34,-2.30
2009,02,14,07,36,-2.30
2009,02,14,07,37,-2.30
2009,02,14,07,39,-2.30
2009,02,14,07,40,-2.30
2009,02,14,07,41,-2.30
2009,02,14,07,42,-2.30
2009,02,14,07,43,-2.30
2009,02,14,07,44,-2.30
2009,02,14,07,45,-2.30
2009,02,14,07,47,-2.30
2009,02,14,07,48,-2.30
2009,02,14,07,50,-2.30
2009,02,14,07,51,-2.30
2009,02,14,07,52,-2.30
2009,02,14,07,53,-2.20
2009,02,14,07,54,-2.20
2009,02,14,07,56,-2.20
2009,02,14,07,57,-2.20
2009,02,14,07,58,-2.20
2009,02,14,07,59,-2.20
2009,02,14,08,00,-2.20
2009,02,14,08,01,-2.20
2009,02,14,08,02,-2.20
2009,02,14,08,03,-2.20
2009,02,14,08,04,-2.20
2009,02,14,08,05,-2.20
2009,02,14,08,06,-2.20
2009,02,14,08,07,-2.20
2009,02,14,08,08,-2.20
2009,02,14,08,09,-2.20
2009,02,14,08,10,-2.20
2009,02,14,08,11,-2.20
2009,02,14,08,12,-2.20
2009,02,14,08,13,-2.20
2009,02,14,08,14,-2.20
2009,02,14,08,15,-2.20
2009,02,14,08,16,-2.20
2009,02,14,08,17,-2.20
2009,02,14,08,18,-2.20
2009,02,14,08,19,-2.20
2009,02,14,08,20,-2.20
2009,02,14,08,21,-2.20
2009,02,14,08,22,-2.20
2009,02,14,08,23,-2.20
2009,02,14,08,24,-2.20
2009,02,14,08,25,-2.20
2009,02,14,08,26,-2.10
2009,02,14,08,27,-2.10
2009,02,14,08,28,-2.10
2009,02,14,08,29,-2.10
2009,02,14,08,30,-2.10
2009,02,14,08,31,-2.10
2009,02,14,08,32,-2.10
2009,02,14,08,33,-2.10
2009,02,14,08,34,-2.10
2009,02,14,08,35,-2.10
2009,02,14,08,36,-2.10
2009,02,14,08,37,-2.10
2009,02,14,08,39,-2.10
2009,02,14,08,40,-2.10
2009,02,14,08,41,-2.10
2009,02,14,08,42,-2.10
2009,02,14,08,43,-2.10
2009,02,14,08,44,-2.10
2009,02,14,08,45,-2.10
2009,02,14,08,46,-2.10
2009,02,14,08,47,-2.10
2009,02,14,08,48,-2.10
2009,02,14,08,49,-2.10
2009,02,14,08,50,-2.10
2009,02,14,08,51,-2.10
2009,02,14,08,52,-2.10
2009,02,14,08,53,-2.10
2009,02,14,08,54,-2.10
2009,02,14,08,55,-2.10
2009,02,14,08,56,-2.10
2009,02,14,08,57,-2.10
2009,02,14,08,58,-2.10
2009,02,14,08,59,-2.10
2009,02,14,09,00,-2.00
2009,02,14,09,01,-2.00
2009,02,14,09,02,-2.00
2009,02,14,09,03,-2.00
2009,02,14,09,04,-2.00
2009,02,14,09,05,-2.00
2009,02,14,09,06,-2.00
2009,02,14,09,07,-2.00
2009,02,14,09,08,-2.00
2009,02,14,09,09,-2.00
2009,02,14,09,10,-2.00
2009,02,14,09,11,-2.00
2009,02,14,09,12,-2.00
2009,02,14,09,13,-2.00
2009,02,14,09,14,-2.00
2009,02,14,09,15,-2.00
2009,02,14,09,16,-1.90
2009,02,14,09,17,-1.90
2009,02,14,09,18,-1.90
2009,02,14,09,19,-1.90
2009,02,14,09,20,-1.80
2009,02,14,09,21,-1.80
2009,02,14,09,22,-1.80
2009,02,14,09,23,-1.80
2009,02,14,09,24,-1.80
2009,02,14,09,25,-1.70
2009,02,14,09,26,-1.70
2009,02,14,09,27,-1.70
2009,02,14,09,28,-1.60
2009,02,14,09,29,-1.60
2009,02,14,09,30,-1.60
2009,02,14,09,32,-1.50
2009,02,14,09,33,-1.50
2009,02,14,09,35,-1.40
2009,02,14,09,36,-1.40
2009,02,14,09,37,-1.40
2009,02,14,09,38,-1.40
2009,02,14,09,39,-1.40
2009,02,14,09,40,-1.40
2009,02,14,09,41,-1.30
2009,02,14,09,42,-1.30
2009,02,14,09,43,-1.30
2009,02,14,09,44,-1.30
2009,02,14,09,45,-1.30
2009,02,14,09,46,-1.30
2009,02,14,09,47,-1.20
2009,02,14,09,48,-1.20
2009,02,14,09,49,-1.20
2009,02,14,09,50,-1.20
2009,02,14,09,51,-1.10
2009,02,14,09,52,-1.10
2009,02,14,09,53,-1.10
2009,02,14,09,54,-1.10
2009,02,14,09,55,-1.00
2009,02,14,09,56,-1.00
2009,02,14,09,57,-1.00
2009,02,14,09,58,-0.90
2009,02,14,09,59,-0.90
2009,02,14,10,00,-0.90
2009,02,14,10,01,-0.90
2009,02,14,10,02,-0.80
2009,02,14,10,03,-0.80
2009,02,14,10,04,-0.80
2009,02,14,10,05,-0.80
2009,02,14,10,06,-0.80
2009,02,14,10,07,-0.80
2009,02,14,10,08,-0.80
2009,02,14,10,09,-0.80
2009,02,14,10,10,-0.80
2009,02,14,10,11,-0.80
2009,02,14,10,12,-0.80
2009,02,14,10,13,-0.80
2009,02,14,10,14,-0.70
2009,02,14,10,15,-0.70
2009,02,14,10,16,-0.70
2009,02,14,10,17,-0.60
2009,02,14,10,19,-0.60
2009,02,14,10,21,-0.60
2009,02,14,10,22,-0.60
2009,02,14,10,23,-0.50
2009,02,14,10,25,-0.50
2009,02,14,10,26,-0.50
2009,02,14,10,27,-0.50
2009,02,14,10,28,-0.40
2009,02,14,10,29,-0.40
2009,02,14,10,30,-0.40
2009,02,14,10,31,-0.40
2009,02,14,10,32,-0.40
2009,02,14,10,33,-0.30
2009,02,14,10,34,-0.30
2009,02,14,10,35,-0.30
2009,02,14,10,36,-0.30
2009,02,14,10,37,-0.30
2009,02,14,10,38,-0.30
2009,02,14,10,39,-0.30
2009,02,14,10,40,-0.30
2009,02,14,10,41,-0.30
2009,02,14,10,42,-0.20
2009,02,14,10,44,-0.20
2009,02,14,10,45,-0.20
2009,02,14,10,46,-0.10
2009,02,14,10,47,-0.10
2009,02,14,10,48,-0.10
2009,02,14,10,49,0.00
2009,02,14,10,50,0.10
2009,02,14,10,51,0.10
2009,02,14,10,52,0.10
2009,02,14,10,53,0.20
2009,02,14,10,54,0.20
2009,02,14,10,55,0.20
2009,02,14,10,57,0.20
2009,02,14,10,58,0.30
2009,02,14,11,00,0.30
2009,02,14,11,01,0.40
2009,02,14,11,02,0.40
2009,02,14,11,03,0.50
2009,02,14,11,04,0.60
2009,02,14,11,05,0.60
2009,02,14,11,06,0.60
2009,02,14,11,07,0.70
2009,02,14,11,08,0.70
2009,02,14,11,09,0.70
2009,02,14,11,11,0.80
2009,02,14,11,12,0.80
2009,02,14,11,13,0.90
2009,02,14,11,14,0.90
2009,02,14,11,15,1.00
2009,02,14,11,16,1.10
2009,02,14,11,17,1.20
2009,02,14,11,18,1.20
2009,02,14,11,19,1.30
2009,02,14,11,20,1.30
2009,02,14,11,21,1.30
2009,02,14,11,22,1.40
2009,02,14,11,23,1.60
2009,02,14,11,24,1.60
2009,02,14,11,25,1.70
2009,02,14,11,26,1.80
2009,02,14,11,27,1.80
2009,02,14,11,28,1.90
2009,02,14,11,29,1.90
2009,02,14,11,30,2.00
2009,02,14,11,31,1.90
2009,02,14,11,32,1.90
2009,02,14,11,33,1.90
2009,02,14,11,34,1.90
2009,02,14,11,36,1.90
2009,02,14,11,37,1.90
2009,02,14,11,38,1.90
2009,02,14,11,39,1.80
2009,02,14,11,40,1.80
2009,02,14,11,41,1.80
2009,02,14,11,42,1.80
2009,02,14,11,43,1.80
2009,02,14,11,44,1.80
2009,02,14,11,45,1.80
2009,02,14,11,46,1.80
2009,02,14,11,47,1.80
2009,02,14,11,49,1.90
2009,02,14,11,50,1.90
2009,02,14,11,51,2.00
2009,02,14,11,52,2.00
2009,02,14,11,53,2.10
2009,02,14,11,54,2.10
2009,02,14,11,55,2.10
2009,02,14,11,56,2.20
2009,02,14,11,57,2.20
2009,02,14,11,58,2.20
2009,02,14,11,59,2.20
2009,02,14,12,00,2.20
2009,02,14,12,01,2.20
2009,02,14,12,02,2.20
2009,02,14,12,03,2.20
2009,02,14,12,04,2.30
2009,02,14,12,05,2.30
2009,02,14,12,06,2.40
2009,02,14,12,07,2.40
2009,02,14,12,08,2.40
2009,02,14,12,09,2.40
2009,02,14,12,10,2.50
2009,02,14,12,11,2.50
2009,02,14,12,12,2.50
2009,02,14,12,13,2.50
2009,02,14,12,14,2.50
2009,02,14,12,15,2.60
2009,02,14,12,16,2.60
2009,02,14,12,17,2.70
2009,02,14,12,18,2.70
2009,02,14,12,19,2.70
2009,02,14,12,20,2.80
2009,02,14,12,21,2.80
2009,02,14,12,22,2.90
2009,02,14,12,23,2.90
2009,02,14,12,24,3.00
2009,02,14,12,25,3.10
2009,02,14,12,26,3.20
2009,02,14,12,27,3.30
2009,02,14,12,28,3.40
2009,02,14,12,29,3.40
2009,02,14,12,30,3.60
2009,02,14,12,31,3.70
2009,02,14,12,32,3.80
2009,02,14,12,33,3.80
2009,02,14,12,34,3.90
2009,02,14,12,35,3.90
2009,02,14,12,36,4.00
2009,02,14,12,37,4.10
2009,02,14,12,38,4.10
2009,02,14,12,39,4.20
2009,02,14,12,40,4.30
2009,02,14,12,41,4.30
2009,02,14,12,42,4.40
2009,02,14,12,43,4.40
2009,02,14,12,44,4.50
2009,02,14,12,45,4.60
2009,02,14,12,46,4.60
2009,02,14,12,47,4.70
2009,02,14,12,48,4.70
2009,02,14,12,49,4.70
2009,02,14,12,50,4.70
2009,02,14,12,51,4.70
2009,02,14,12,52,4.70
2009,02,14,12,53,4.70
2009,02,14,12,54,4.70
2009,02,14,12,55,4.70
2009,02,14,12,56,4.80
2009,02,14,12,57,4.80
2009,02,14,12,58,4.80
2009,02,14,12,59,4.80
2009,02,14,13,00,4.80
2009,02,14,13,01,4.80
2009,02,14,13,02,4.80
2009,02,14,13,03,4.90
2009,02,14,13,04,4.90
2009,02,14,13,05,4.90
2009,02,14,13,06,4.90
2009,02,14,13,07,4.90
2009,02,14,13,09,4.90
2009,02,14,13,10,4.90
2009,02,14,13,11,4.90
2009,02,14,13,12,4.90
2009,02,14,13,13,4.90
2009,02,14,13,14,4.90
2009,02,14,13,15,5.00
2009,02,14,13,16,5.10
2009,02,14,13,17,5.10
2009,02,14,13,18,5.10
2009,02,14,13,19,5.20
2009,02,14,13,21,5.30
2009,02,14,13,22,5.40
2009,02,14,13,23,5.50
2009,02,14,13,24,5.60
2009,02,14,13,25,5.60
2009,02,14,13,26,5.60
2009,02,14,13,27,5.60
2009,02,14,13,28,5.60
2009,02,14,13,29,5.60
2009,02,14,13,30,5.60
2009,02,14,13,31,5.70
2009,02,14,13,32,5.70
2009,02,14,13,33,5.80
2009,02,14,13,34,5.80
2009,02,14,13,35,5.90
2009,02,14,13,36,6.00
2009,02,14,13,37,6.00
2009,02,14,13,38,6.10
2009,02,14,13,39,6.20
2009,02,14,13,40,6.20
2009,02,14,13,41,6.30
2009,02,14,13,42,6.40
2009,02,14,13,43,6.50
2009,02,14,13,44,6.60
2009,02,14,13,45,6.70
2009,02,14,13,46,6.70
2009,02,14,13,47,6.80
2009,02,14,13,48,6.90
2009,02,14,13,49,6.90
2009,02,14,13,50,7.10
2009,02,14,13,51,7.10
2009,02,14,13,52,7.20
2009,02,14,13,53,7.20
2009,02,14,13,54,7.20
2009,02,14,13,55,7.20
2009,02,14,13,56,7.30
2009,02,14,13,57,7.30
2009,02,14,13,58,7.30
2009,02,14,13,59,7.30
2009,02,14,14,00,7.40
2009,02,14,14,01,7.40
2009,02,14,14,02,7.40
2009,02,14,14,03,7.40
2009,02,14,14,04,7.40
2009,02,14,14,05,7.40
2009,02,14,14,07,7.40
2009,02,14,14,08,7.40
2009,02,14,14,10,7.50
2009,02,14,14,11,7.50
2009,02,14,14,12,7.50
2009,02,14,14,13,7.60
2009,02,14,14,14,7.60
2009,02,14,14,15,7.60
2009,02,14,14,16,7.50
2009,02,14,14,17,7.50
2009,02,14,14,18,7.40
2009,02,14,14,19,7.40
2009,02,14,14,20,7.40
2009,02,14,14,21,7.40
2009,02,14,14,22,7.30
2009,02,14,14,23,7.30
2009,02,14,14,24,7.20
2009,02,14,14,25,7.20
2009,02,14,14,26,7.20
2009,02,14,14,27,7.20
2009,02,14,14,28,7.20
2009,02,14,14,29,7.20
2009,02,14,14,30,7.10
2009,02,14,14,31,7.10
2009,02,14,14,32,7.10
2009,02,14,14,33,7.10
2009,02,14,14,34,7.10
2009,02,14,14,35,7.20
2009,02,14,14,36,7.20
2009,02,14,14,37,7.20
2009,02,14,14,38,7.20
2009,02,14,14,39,7.30
2009,02,14,14,40,7.30
2009,02,14,14,41,7.30
2009,02,14,14,42,7.30
2009,02,14,14,43,7.30
2009,02,14,14,44,7.20
2009,02,14,14,45,7.20
2009,02,14,14,46,7.20
2009,02,14,14,47,7.20
2009,02,14,14,48,7.10
2009,02,14,14,49,7.10
2009,02,14,14,50,7.00
2009,02,14,14,51,7.00
2009,02,14,14,52,7.00
2009,02,14,14,53,7.00
2009,02,14,14,54,7.00
2009,02,14,14,55,6.90
2009,02,14,14,56,6.90
2009,02,14,14,58,6.90
2009,02,14,14,59,6.90
2009,02,14,15,00,6.90
2009,02,14,15,01,6.90
2009,02,14,15,02,6.90
2009,02,14,15,03,6.90
2009,02,14,15,04,6.80
2009,02,14,15,05,6.80
2009,02,14,15,06,6.80
2009,02,14,15,07,6.80
2009,02,14,15,08,6.80
2009,02,14,15,09,6.80
2009,02,14,15,10,6.70
2009,02,14,15,11,6.70
2009,02,14,15,12,6.70
2009,02,14,15,13,6.70
2009,02,14,15,14,6.70
2009,02,14,15,15,6.60
2009,02,14,15,16,6.60
2009,02,14,15,17,6.60
2009,02,14,15,18,6.60
2009,02,14,15,19,6.60
2009,02,14,15,20,6.60
2009,02,14,15,21,6.50
2009,02,14,15,22,6.50
2009,02,14,15,23,6.50
2009,02,14,15,24,6.50
2009,02,14,15,25,6.50
2009,02,14,15,26,6.50
2009,02,14,15,27,6.50
2009,02,14,15,28,6.50
2009,02,14,15,29,6.50
2009,02,14,15,30,6.50
2009,02,14,15,31,6.50
2009,02,14,15,32,6.50
2009,02,14,15,33,6.50
2009,02,14,15,34,6.50
2009,02,14,15,35,6.50
2009,02,14,15,36,6.40
2009,02,14,15,37,6.40
2009,02,14,15,38,6.40
2009,02,14,15,39,6.40
2009,02,14,15,40,6.40
2009,02,14,15,41,6.40
2009,02,14,15,42,6.40
2009,02,14,15,43,6.40
2009,02,14,15,44,6.40
2009,02,14,15,45,6.40
2009,02,14,15,46,6.40
2009,02,14,15,47,6.40
2009,02,14,15,48,6.40
2009,02,14,15,49,6.40
2009,02,14,15,50,6.40
2009,02,14,15,51,6.40
2009,02,14,15,52,6.40
2009,02,14,15,53,6.30
2009,02,14,15,54,6.30
2009,02,14,15,55,6.30
2009,02,14,15,56,6.30
2009,02,14,15,57,6.30
2009,02,14,15,58,6.30
2009,02,14,15,59,6.30
2009,02,14,16,00,6.30
2009,02,14,16,01,6.30
2009,02,14,16,02,6.30
2009,02,14,16,04,6.30
2009,02,14,16,05,6.30
2009,02,14,16,06,6.20
2009,02,14,16,07,6.20
2009,02,14,16,08,6.20
2009,02,14,16,09,6.20
2009,02,14,16,10,6.20
2009,02,14,16,11,6.20
2009,02,14,16,12,6.10
2009,02,14,16,13,6.10
2009,02,14,16,14,6.10
2009,02,14,16,15,6.10
2009,02,14,16,16,6.10
2009,02,14,16,17,6.10
2009,02,14,16,18,6.10
2009,02,14,16,19,6.10
2009,02,14,16,20,6.00
2009,02,14,16,21,6.00
2009,02,14,16,22,6.00
2009,02,14,16,23,6.00
2009,02,14,16,24,5.90
2009,02,14,16,25,5.90
2009,02,14,16,26,5.90
2009,02,14,16,27,5.90
2009,02,14,16,28,5.90
2009,02,14,16,29,5.80
2009,02,14,16,30,5.80
2009,02,14,16,31,5.80
2009,02,14,16,32,5.80
2009,02,14,16,33,5.80
2009,02,14,16,34,5.80
2009,02,14,16,35,5.80
2009,02,14,16,36,5.70
2009,02,14,16,37,5.70
2009,02,14,16,38,5.70
2009,02,14,16,39,5.70
2009,02,14,16,40,5.70
2009,02,14,16,41,5.70
2009,02,14,16,42,5.60
2009,02,14,16,43,5.60
2009,02,14,16,44,5.60
2009,02,14,16,45,5.60
2009,02,14,16,46,5.60
2009,02,14,16,47,5.60
2009,02,14,16,48,5.60
2009,02,14,16,49,5.60
2009,02,14,16,50,5.60
2009,02,14,16,51,5.60
2009,02,14,16,52,5.50
2009,02,14,16,53,5.50
2009,02,14,16,54,5.50
2009,02,14,16,55,5.50
2009,02,14,16,56,5.50
2009,02,14,16,57,5.50
2009,02,14,16,58,5.50
2009,02,14,16,59,5.50
2009,02,14,17,00,5.40
2009,02,14,17,01,5.40
2009,02,14,17,02,5.40
2009,02,14,17,03,5.40
2009,02,14,17,04,5.40
2009,02,14,17,05,5.40
2009,02,14,17,06,5.40
2009,02,14,17,07,5.40
2009,02,14,17,08,5.40
2009,02,14,17,09,5.40
2009,02,14,17,10,5.40
2009,02,14,17,11,5.40
2009,02,14,17,12,5.30
2009,02,14,17,13,5.30
2009,02,14,17,14,5.30
2009,02,14,17,15,5.30
2009,02,14,17,16,5.30
2009,02,14,17,17,5.30
2009,02,14,17,18,5.30
2009,02,14,17,19,5.20
2009,02,14,17,20,5.20
2009,02,14,17,21,5.20
2009,02,14,17,22,5.20
2009,02,14,17,23,5.20
2009,02,14,17,24,5.10
2009,02,14,17,25,5.10
2009,02,14,17,26,5.10
2009,02,14,17,27,5.10
2009,02,14,17,28,5.00
2009,02,14,17,29,4.90
2009,02,14,17,30,4.90
2009,02,14,17,31,4.90
2009,02,14,17,32,4.80
2009,02,14,17,33,4.80
2009,02,14,17,34,4.70
2009,02,14,17,35,4.70
2009,02,14,17,36,4.60
2009,02,14,17,37,4.60
2009,02,14,17,38,4.60
2009,02,14,17,39,4.50
2009,02,14,17,40,4.40
2009,02,14,17,41,4.40
2009,02,14,17,42,4.30
2009,02,14,17,43,4.30
2009,02,14,17,44,4.20
2009,02,14,17,45,4.10
2009,02,14,17,46,4.10
2009,02,14,17,48,3.90
2009,02,14,17,49,3.90
2009,02,14,17,50,3.90
2009,02,14,17,51,3.80
2009,02,14,17,52,3.80
2009,02,14,17,53,3.90
2009,02,14,17,54,3.90
2009,02,14,17,55,3.90
2009,02,14,17,56,3.90
2009,02,14,17,57,3.90
2009,02,14,17,58,3.90
2009,02,14,17,59,3.90
2009,02,14,18,00,3.90
2009,02,14,18,01,3.90
2009,02,14,18,02,3.90
2009,02,14,18,03,3.90
2009,02,14,18,04,3.90
2009,02,14,18,05,3.90
2009,02,14,18,06,3.90
2009,02,14,18,07,3.90
2009,02,14,18,08,3.80
2009,02,14,18,09,3.80
2009,02,14,18,10,3.80
2009,02,14,18,11,3.70
2009,02,14,18,12,3.70
2009,02,14,18,13,3.70
2009,02,14,18,14,3.60
2009,02,14,18,15,3.60
2009,02,14,18,16,3.60
2009,02,14,18,17,3.50
2009,02,14,18,18,3.50
2009,02,14,18,19,3.40
2009,02,14,18,20,3.40
2009,02,14,18,21,3.30
2009,02,14,18,23,3.30
2009,02,14,18,24,3.30
2009,02,14,18,25,3.20
2009,02,14,18,26,3.20
2009,02,14,18,27,3.20
2009,02,14,18,28,3.10
2009,02,14,18,29,3.10
2009,02,14,18,30,3.10
2009,02,14,18,31,3.00
2009,02,14,18,32,3.00
2009,02,14,18,33,2.90
2009,02,14,18,34,2.90
2009,02,14,18,35,2.90
2009,02,14,18,36,2.80
2009,02,14,18,37,2.80
2009,02,14,18,38,2.80
2009,02,14,18,39,2.80
2009,02,14,18,40,2.70
2009,02,14,18,41,2.70
2009,02,14,18,42,2.60
2009,02,14,18,43,2.60
2009,02,14,18,44,2.50
2009,02,14,18,45,2.40
2009,02,14,18,46,2.40
2009,02,14,18,47,2.30
2009,02,14,18,48,2.30
2009,02,14,18,49,2.20
2009,02,14,18,50,2.20
2009,02,14,18,51,2.10
2009,02,14,18,52,2.10
2009,02,14,18,54,1.90
2009,02,14,18,55,1.90
2009,02,14,18,56,1.80